GPS BIIR-5 (PRN 28)

Last updated on June 25, 2021, 11:15 a.m. UTC

1 26407U 00040A   21175.84709858 -.00000034  00000-0  00000-0 0  9996
2 26407  55.7157 287.4493 0177103 282.6133 344.7599  2.00557040153476
UTC
Height (km)
Latitude
Longitude
Inclination
Orbital Period
UTC large
Height (km)
Speed (km/s)
/
Latitude / Longitude
Inclination (degrees)
Orbital Period (minutes)
Azimuth
Elevation
Range (km)
Doppler Factor
iOS Compass Heading
iOS Angle